This demonstration page uses our WeatherBlox Daily Observations layout. Learn more.

41.55636, -103.73856

Hourly Observations for June 29, 2017

Temp ( °F °C ) Dew Point ( °F °C ) Humidity (%) Winds ( mph kmh ) Pressure ( in mb ) Visibility ( mi km ) Precip ( " mm )
12:53 am 00:53 Clear 64 17.8 52 11.1 65 65 E 7 11 29.67 1005 10 16.0934 0 0.0254
1:53 am 01:53 Clear 61 16.1 53 11.7 75 75 N 7 11 29.67 1005 10 16.0934 0 0
2:53 am 02:53 Clear 58 14.4 52 11.1 81 81 E 8 13 29.66 1005 10 16.0934 0 0
3:53 am 03:53 Clear 55 12.8 51 10.6 87 87 NW 7 11 29.69 1006 10 16.0934 0 0
4:53 am 04:53 Clear 57 13.9 47 8.3 69 69 NW 7 11 29.72 1006 10 16.0934 0 0
5:53 am 05:53 Sunny 56 13.3 48 8.9 75 75 VRB 5 7 29.75 1008 10 16.0934 0 0
6:53 am 06:53 Sunny 59 15 50 10 72 72 WNW 10 17 29.79 1009 10 16.0934 0 0
7:53 am 07:53 Sunny 63 17.2 49 9.4 60 60 NW 9 15 29.83 1010 10 16.0934 0 0
8:53 am 08:53 Sunny 65 18.3 49 9.4 56 56 W 9 15 29.85 1011 10 16.0934 0 0
9:53 am 09:53 Sunny 69 20.6 51 10.6 53 53 VRB 7 11 29.85 1011 10 16.0934 0 0
10:33 am 10:33 Mostly Sunny 73 22.8 48 8.9 41 41 NW 16 26 29.74 1007 10 16.0934 0 0
10:53 am 10:53 Mostly Sunny 75 23.9 47 8.3 37 37 N 14 22 29.85 1011 10 16.0934 0 0
11:53 am 11:53 Sunny 77 25 45 7.2 32 32 NW 16 26 29.85 1011 10 16.0934 0 0
12:53 pm 12:53 Sunny 78 25.6 41 5 27 27 NW 8 13 29.85 1011 10 16.0934 0 0
1:53 pm 13:53 Sunny 80 26.7 42 5.6 26 26 NNW 16 26 29.84 1010 10 16.0934 0 0
2:53 pm 14:53 Sunny 81 27.2 40 4.4 23 23 N 16 26 29.82 1010 10 16.0934 0 0
3:53 pm 15:53 Sunny 81 27.2 40 4.4 23 23 NNE 12 19 29.83 1010 10 16.0934 0 0
4:53 pm 16:53 Cloudy 77 25 42 5.6 29 29 NE 12 19 29.86 1011 10 16.0934 0 0
5:53 pm 17:53 Mostly Sunny 74 23.3 48 8.9 40 40 NNE 18 30 29.89 1012 10 16.0934 0 0
6:53 pm 18:53 Sunny 70 21.1 46 7.8 42 42 NNE 16 26 29.91 1013 10 16.0934 0 0
7:53 pm 19:53 Cloudy 68 20 49 9.4 51 51 WNW 13 20 29.98 1015 10 16.0934 0 0
8:53 pm 20:53 Clear 62 16.7 55 12.8 78 78 S 7 11 30 1016 10 16.0934 0.04 1.016
9:53 pm 21:53 Partly Cloudy 62 16.7 56 13.3 80 80 NNW 7 11 30.03 1017 10 16.0934 0 0
10:53 pm 22:53 Clear 59 15 50 10 72 72 N 12 19 30.03 1017 10 16.0934 0 0
11:53 pm 23:53 Cloudy 59 15 50 10 72 72 N 8 13 30.05 1018 10 16.0934 0 0

Powered by AerisWeather